DECAYED

STARLINK-5301, 55270 (Decayed)

Orbit data source: Space-Track

STARLINK-5301, 55270 was a payload satellite owned by SpaceX/Seattle (US) in LEO that was launched on Thu, 19 Jan 2023 UTC via an FALCON 9 launch vehicle from the Air Force Western Test Range (AFWTR). Payload-class satellites include a variety of spacecraft equipped with specific instruments for various scientific and technological missions. These include communications satellites like Starlink; space stations such as the ISS; scientific satellites like the Hubble; Earth observation satellites from companies like Planet Labs, Umbra, and HawkEye 360; GPS; miniature CubeSats for education and research; and military/defense satellites.

Not visible in the next 10 days
Identifier
55270, 2023-010B
Orbit
Decayed
Country
Flag of USUS
Related business
Manufacturer
SpaceX/Seattle
Mission
Decayed Commercial Communications
Bus & Motor
STARLINK, Unknown motor
Mass
305 kg wet, ~290 kg dry
Launch date (UTC)
2023-01-19 (3 years ago)
Launch vehicle
FALCON 9
Launch site
Air Force Western Test Range (AFWTR)
Object type
Payload
Rocket body
Debris
Shape & HBR
Box + 1 Pan, 10.1 m
Radar Cross Section
13.562 m², Large (>1 m²)

Expand to show TLE details & history
Last TLE update: 1 year ago

TLE from 1 year ago
0 STARLINK-5301
1 55270U 23010B   25056.69312450  .18020015  45033-5  23167-3 0  9992
2 55270  69.9792 258.9976 0007783 255.1062 221.8403 16.49176874116387
Epoch: 2025-02-25T16:38Z
TLE epoch observation values (Epoch: 2025-02-25T16:38:05.956Z)
Latitude
57.05393°
Longitude
-0.30829°
Altitude
154.261 km
Speed
7.817 km/s
True Right ascension
03h 00m 02s
True Declination
56° 52' 56"
Sunlit
Object was in daylight at epoch
Visualization orbit readout
Latitude
Unknown
Longitude
Unknown
Altitude
Unknown
Speed
Unknown
Apparent Right ascension
Unknown
Apparent Declination
Unknown
Sunlit
N/A
Visualization observer readout
Local Sidereal Time
21:31:58
Azimuth
Unknown
Elevation
Unknown
Doppler factor
Unknown
Orbital elements
Apogee altitude
144.391 km
Perigee altitude
134.246 km
Semi-major axis
6,517.456 km
Eccentricity
0.00078
Inclination
69.9792°
RAAN
258.9976°
Arg. of periapsis
255.1062°
True anomaly
221.78085°
Mean anomaly
221.8403°
Eccentric anomaly
221.81057°
Mean motion
4.12502 °/min
Orbital period
87.27 mins
BSTAR
0.00023167
Loading maneuver chart data...
Computing Atmospheric mass density...
Loading historical data...
Loading historical data...
Loading historical data...
Loading historical data...
Loading historical data...
Loading historical data...
Loading historical data...

Documentation

Showing up to 5 results
|